IRIDIUM 162

Last updated on Sun Jun 21 2026 00:03:14 GMT+0000 (Coordinated Universal Time)

1 43482U 18047G 26171.28258397 .00000266 00000+0 73032-4 0 9994 2 43482 86.4482 87.0682 0002254 82.5309 277.6148 14.43283267425574
UTC large
Height (km)
Speed (km/s)
/
Latitude / Longitude
Inclination (degrees)
Orbital Period (minutes)
Azimuth
Elevation
Range (km)
Doppler Factor

Next 0 passes for location: London (51.5072 / 0.1276)

No passes found over London.
IRIDIUM 162